Time,TemperatureF,DewpointF,PressureIn,WindDirection,WindDirectionDegrees,WindSpeedMPH,WindSpeedGustMPH,Humidity,HourlyPrecipIn,Conditions,Clouds,dailyrainin,SolarRadiationWatts/m^2,SoftwareType,DateUTC
2013-05-15 00:01:00,70.5,61.4,30.13,ESE,102,0.0,0.0,73,0.00,,SCT050,0.00,0.00,VWS V14.00,2013-05-15 04:01:00,
2013-05-15 00:06:00,70.5,61.8,30.13,ESE,102,0.0,0.0,74,0.00,,SCT050,0.00,0.00,VWS V14.00,2013-05-15 04:06:00,
2013-05-15 00:11:00,70.5,61.4,30.13,ESE,102,0.0,0.0,73,0.00,,SCT050,0.00,0.00,VWS V14.00,2013-05-15 04:11:00,
2013-05-15 00:16:00,70.4,61.7,30.12,ESE,102,0.0,0.0,74,0.00,,SCT050,0.00,0.00,VWS V14.00,2013-05-15 04:16:00,
2013-05-15 00:21:00,70.4,61.7,30.12,ESE,102,0.0,1.0,74,0.00,,SCT050,0.00,0.00,VWS V14.00,2013-05-15 04:21:00,
2013-05-15 00:26:00,70.4,62.1,30.12,ESE,102,0.0,1.0,75,0.00,,SCT050,0.00,0.00,VWS V14.00,2013-05-15 04:26:00,
2013-05-15 00:31:00,70.4,62.1,30.12,ESE,102,0.0,0.0,75,0.00,,SCT050,0.00,0.00,VWS V14.00,2013-05-15 04:31:00,
2013-05-15 00:36:00,70.3,62.0,30.12,ESE,102,0.0,0.0,75,0.00,,SCT050,0.00,0.00,VWS V14.00,2013-05-15 04:36:00,
2013-05-15 00:41:00,70.3,62.0,30.12,ESE,102,0.0,0.0,75,0.00,,SCT050,0.00,0.00,VWS V14.00,2013-05-15 04:41:00,
2013-05-15 00:46:00,70.2,62.3,30.12,ESE,102,0.0,0.0,76,0.00,,SCT050,0.00,0.00,VWS V14.00,2013-05-15 04:46:00,
2013-05-15 00:51:00,70.1,62.2,30.12,ESE,102,0.0,0.0,76,0.00,,SCT050,0.00,0.00,VWS V14.00,2013-05-15 04:51:00,
2013-05-15 00:56:00,70.0,62.1,30.12,ESE,102,0.0,0.0,76,0.00,,SCT050,0.00,0.00,VWS V14.00,2013-05-15 04:56:00,
2013-05-15 01:01:00,69.9,62.4,30.12,ESE,102,0.0,0.0,77,0.00,,SCT050,0.00,0.00,VWS V14.00,2013-05-15 05:01:00,
2013-05-15 01:06:00,69.7,61.8,30.12,ESE,102,0.0,0.0,76,0.00,,SCT050,0.00,0.00,VWS V14.00,2013-05-15 05:06:00,
2013-05-15 01:11:00,69.7,62.2,30.12,ESE,102,0.0,1.0,77,0.00,,SCT050,0.00,0.00,VWS V14.00,2013-05-15 05:11:00,
2013-05-15 01:16:00,69.6,62.1,30.11,ESE,102,0.0,0.0,77,0.00,,SCT050,0.00,0.00,VWS V14.00,2013-05-15 05:16:00,
2013-05-15 01:21:00,69.4,62.2,30.11,ESE,102,0.0,0.0,78,0.00,,SCT050,0.00,0.00,VWS V14.00,2013-05-15 05:21:00,
2013-05-15 01:26:00,69.3,62.2,30.11,ESE,102,0.0,0.0,78,0.00,,SCT050,0.00,0.00,VWS V14.00,2013-05-15 05:26:00,
2013-05-15 01:31:00,69.2,62.1,30.11,ESE,102,0.0,0.0,78,0.00,,SCT050,0.00,0.00,VWS V14.00,2013-05-15 05:31:00,
2013-05-15 01:36:00,69.1,62.0,30.11,ESE,102,0.0,0.0,78,0.00,,SCT050,0.00,0.00,VWS V14.00,2013-05-15 05:36:00,
2013-05-15 01:41:00,69.0,61.9,30.11,ESE,102,0.0,0.0,78,0.00,,SCT050,0.00,0.00,VWS V14.00,2013-05-15 05:41:00,
2013-05-15 01:46:00,69.0,62.2,30.11,ESE,102,0.0,0.0,79,0.00,,SCT050,0.00,0.00,VWS V14.00,2013-05-15 05:46:00,
2013-05-15 01:51:00,69.0,62.2,30.10,ESE,102,0.0,0.0,79,0.00,,SCT050,0.00,0.00,VWS V14.00,2013-05-15 05:51:00,
2013-05-15 01:56:00,68.9,62.1,30.10,ESE,102,0.0,0.0,79,0.00,,SCT050,0.00,0.00,VWS V14.00,2013-05-15 05:56:00,
2013-05-15 02:01:00,68.9,62.1,30.10,ESE,102,0.0,0.0,79,0.00,,SCT050,0.00,0.00,VWS V14.00,2013-05-15 06:01:00,
2013-05-15 02:06:00,68.8,62.0,30.10,ESE,102,0.0,0.0,79,0.00,,SCT050,0.00,0.00,VWS V14.00,2013-05-15 06:06:00,
2013-05-15 02:11:00,68.7,61.9,30.10,ESE,102,0.0,0.0,79,0.00,,SCT050,0.00,0.00,VWS V14.00,2013-05-15 06:11:00,
2013-05-15 02:16:00,68.8,62.4,30.10,ESE,102,0.0,0.0,80,0.00,,SCT050,0.00,0.00,VWS V14.00,2013-05-15 06:16:00,
2013-05-15 02:21:00,68.7,62.3,30.09,ESE,102,0.0,0.0,80,0.00,,SCT050,0.00,0.00,VWS V14.00,2013-05-15 06:21:00,
2013-05-15 02:26:00,68.6,62.2,30.09,ESE,102,0.0,0.0,80,0.00,,SCT050,0.00,0.00,VWS V14.00,2013-05-15 06:26:00,
2013-05-15 02:31:00,68.6,62.2,30.09,ESE,102,0.0,0.0,80,0.00,,SCT050,0.00,0.00,VWS V14.00,2013-05-15 06:31:00,
2013-05-15 02:36:00,68.5,62.1,30.09,ESE,102,0.0,0.0,80,0.00,,SCT050,0.00,0.00,VWS V14.00,2013-05-15 06:36:00,
2013-05-15 02:41:00,68.5,62.1,30.09,ESE,102,0.0,0.0,80,0.00,,SCT050,0.00,0.00,VWS V14.00,2013-05-15 06:41:00,
2013-05-15 02:46:00,68.4,62.0,30.09,ESE,102,0.0,0.0,80,0.00,,SCT050,0.00,0.00,VWS V14.00,2013-05-15 06:46:00,
2013-05-15 02:51:00,68.4,62.0,30.09,ESE,102,0.0,0.0,80,0.00,,SCT050,0.00,0.00,VWS V14.00,2013-05-15 06:51:00,
2013-05-15 02:56:00,68.4,62.3,30.09,ESE,102,0.0,0.0,81,0.00,,SCT050,0.00,0.00,VWS V14.00,2013-05-15 06:56:00,
2013-05-15 03:01:00,68.4,62.0,30.09,ESE,102,0.0,0.0,80,0.00,,SCT050,0.00,0.00,VWS V14.00,2013-05-15 07:01:00,
2013-05-15 03:07:00,68.3,62.2,30.09,ESE,102,0.0,0.0,81,0.00,,SCT050,0.00,0.00,VWS V14.00,2013-05-15 07:07:00,
2013-05-15 03:12:00,68.2,62.2,30.09,ESE,102,0.0,0.0,81,0.00,,SCT050,0.00,0.00,VWS V14.00,2013-05-15 07:12:00,
2013-05-15 03:17:00,68.1,62.8,30.09,ESE,102,0.0,0.0,83,0.00,,SCT050,0.00,0.00,VWS V14.00,2013-05-15 07:17:00,
2013-05-15 03:22:00,68.0,62.7,30.09,ESE,102,0.0,0.0,83,0.00,,SCT050,0.00,0.00,VWS V14.00,2013-05-15 07:22:00,
2013-05-15 03:27:00,67.7,62.0,30.09,ESE,102,0.0,1.0,82,0.00,,SCT050,0.00,0.00,VWS V14.00,2013-05-15 07:27:00,
2013-05-15 03:32:00,67.6,62.3,30.09,ESE,102,0.0,0.0,83,0.00,,SCT050,0.00,0.00,VWS V14.00,2013-05-15 07:32:00,
2013-05-15 03:37:00,67.5,62.2,30.09,ESE,102,0.0,0.0,83,0.00,,SCT050,0.00,0.00,VWS V14.00,2013-05-15 07:37:00,
2013-05-15 03:42:00,67.5,62.2,30.09,ESE,102,1.0,2.0,83,0.00,,SCT050,0.00,0.00,VWS V14.00,2013-05-15 07:42:00,
2013-05-15 03:47:00,67.5,62.2,30.08,ESE,102,0.0,0.0,83,0.00,,SCT050,0.00,0.00,VWS V14.00,2013-05-15 07:47:00,
2013-05-15 03:52:00,67.5,62.2,30.08,ESE,102,0.0,0.0,83,0.00,,SCT050,0.00,0.00,VWS V14.00,2013-05-15 07:52:00,
2013-05-15 03:57:00,67.5,62.2,30.08,ESE,102,0.0,0.0,83,0.00,,SCT050,0.00,0.00,VWS V14.00,2013-05-15 07:57:00,
2013-05-15 04:02:00,67.4,62.1,30.08,ESE,102,0.0,0.0,83,0.00,,SCT050,0.00,0.00,VWS V14.00,2013-05-15 08:02:00,
2013-05-15 04:07:00,67.4,62.1,30.08,ESE,102,0.0,0.0,83,0.00,,SCT050,0.00,0.00,VWS V14.00,2013-05-15 08:07:00,
2013-05-15 04:12:00,67.3,62.0,30.08,ESE,102,0.0,0.0,83,0.00,,SCT050,0.00,0.00,VWS V14.00,2013-05-15 08:12:00,
2013-05-15 04:17:00,67.3,62.3,30.08,ESE,102,0.0,0.0,84,0.00,,SCT050,0.00,0.00,VWS V14.00,2013-05-15 08:17:00,
2013-05-15 04:22:00,67.4,62.1,30.08,ESE,102,0.0,0.0,83,0.00,,SCT050,0.00,0.00,VWS V14.00,2013-05-15 08:22:00,
2013-05-15 04:27:00,67.3,62.0,30.08,ESE,102,0.0,0.0,83,0.00,,SCT050,0.00,0.00,VWS V14.00,2013-05-15 08:27:00,
2013-05-15 04:32:00,67.3,62.3,30.08,ESE,102,0.0,0.0,84,0.00,,SCT050,0.00,0.00,VWS V14.00,2013-05-15 08:32:00,
2013-05-15 04:37:00,67.3,62.3,30.08,ESE,102,0.0,0.0,84,0.00,,SCT050,0.00,0.00,VWS V14.00,2013-05-15 08:37:00,
2013-05-15 04:42:00,67.1,62.1,30.08,ESE,102,0.0,0.0,84,0.00,,SCT050,0.00,0.00,VWS V14.00,2013-05-15 08:42:00,
2013-05-15 04:47:00,67.1,62.1,30.08,ESE,102,0.0,0.0,84,0.00,,SCT050,0.00,0.00,VWS V14.00,2013-05-15 08:47:00,
2013-05-15 04:52:00,67.1,62.5,30.08,ESE,102,0.0,0.0,85,0.00,,SCT050,0.00,0.00,VWS V14.00,2013-05-15 08:52:00,
2013-05-15 04:57:00,66.9,62.2,30.08,ESE,102,0.0,0.0,85,0.00,,SCT050,0.00,0.00,VWS V14.00,2013-05-15 08:57:00,
2013-05-15 05:02:00,66.9,62.2,30.08,ESE,102,0.0,0.0,85,0.00,,SCT050,0.00,0.00,VWS V14.00,2013-05-15 09:02:00,
2013-05-15 05:07:00,67.0,62.3,30.08,ESE,102,0.0,1.0,85,0.00,,SCT050,0.00,0.00,VWS V14.00,2013-05-15 09:07:00,
2013-05-15 05:12:00,67.0,62.3,30.09,ESE,102,0.0,0.0,85,0.00,,SCT050,0.00,0.00,VWS V14.00,2013-05-15 09:12:00,
2013-05-15 05:17:00,66.9,62.2,30.09,ESE,102,0.0,0.0,85,0.00,,SCT050,0.00,0.00,VWS V14.00,2013-05-15 09:17:00,
2013-05-15 05:22:00,66.9,62.2,30.09,ESE,102,0.0,0.0,85,0.00,,SCT050,0.00,0.00,VWS V14.00,2013-05-15 09:22:00,
2013-05-15 05:27:00,66.9,62.2,30.09,ESE,102,0.0,0.0,85,0.00,,SCT050,0.00,0.00,VWS V14.00,2013-05-15 09:27:00,
2013-05-15 05:32:00,67.1,62.8,30.09,ESE,102,0.0,0.0,86,0.00,,SCT050,0.00,0.00,VWS V14.00,2013-05-15 09:32:00,
2013-05-15 05:37:00,67.3,62.6,30.09,ESE,102,0.0,0.0,85,0.00,,SCT050,0.00,0.00,VWS V14.00,2013-05-15 09:37:00,
2013-05-15 05:42:00,67.3,62.6,30.09,ESE,102,0.0,0.0,85,0.00,,SCT050,0.00,0.00,VWS V14.00,2013-05-15 09:42:00,
2013-05-15 05:47:00,67.3,62.6,30.09,ESE,102,0.0,0.0,85,0.00,,SCT050,0.00,0.00,VWS V14.00,2013-05-15 09:47:00,
2013-05-15 05:52:00,67.6,63.3,30.09,ESE,102,0.0,0.0,86,0.00,,SCT050,0.00,0.00,VWS V14.00,2013-05-15 09:52:00,
2013-05-15 05:57:00,67.7,63.0,30.09,ESE,102,0.0,0.0,85,0.00,,SCT050,0.00,0.00,VWS V14.00,2013-05-15 09:57:00,
2013-05-15 06:02:00,67.9,63.2,30.09,ESE,102,0.0,0.0,85,0.00,,SCT050,0.00,0.00,VWS V14.00,2013-05-15 10:02:00,
2013-05-15 06:07:00,68.1,63.4,30.09,ESE,102,0.0,0.0,85,0.00,,SCT050,0.00,0.00,VWS V14.00,2013-05-15 10:07:00,
2013-05-15 06:12:00,68.1,63.4,30.09,ESE,102,0.0,0.0,85,0.00,,SCT050,0.00,0.00,VWS V14.00,2013-05-15 10:12:00,
2013-05-15 06:17:00,68.1,63.4,30.09,ESE,102,0.0,0.0,85,0.00,,SCT050,0.00,0.00,VWS V14.00,2013-05-15 10:17:00,
2013-05-15 06:22:00,68.1,63.4,30.10,ESE,102,0.0,0.0,85,0.00,,SCT050,0.00,0.00,VWS V14.00,2013-05-15 10:22:00,
2013-05-15 06:27:00,68.2,63.5,30.10,ESE,102,0.0,0.0,85,0.00,,SCT050,0.00,0.00,VWS V14.00,2013-05-15 10:27:00,
2013-05-15 06:32:00,68.3,64.0,30.10,ESE,102,0.0,0.0,86,0.00,,SCT050,0.00,0.00,VWS V14.00,2013-05-15 10:32:00,
2013-05-15 06:37:00,68.4,63.7,30.10,ESE,102,0.0,0.0,85,0.00,,SCT050,0.00,0.00,VWS V14.00,2013-05-15 10:37:00,
2013-05-15 06:42:00,68.7,64.0,30.10,ESE,102,0.0,0.0,85,0.00,,SCT050,0.00,5.00,VWS V14.00,2013-05-15 10:42:00,
2013-05-15 06:47:00,68.9,63.9,30.10,ESE,102,0.0,0.0,84,0.00,,SCT050,0.00,12.00,VWS V14.00,2013-05-15 10:47:00,
2013-05-15 06:52:00,69.0,64.0,30.10,ESE,102,0.0,0.0,84,0.00,,SCT050,0.00,53.00,VWS V14.00,2013-05-15 10:52:00,
2013-05-15 06:57:00,69.2,64.2,30.10,ESE,102,0.0,1.0,84,0.00,,SCT050,0.00,30.00,VWS V14.00,2013-05-15 10:57:00,
2013-05-15 07:02:00,69.3,64.3,30.10,ESE,102,0.0,0.0,84,0.00,,SCT050,0.00,25.00,VWS V14.00,2013-05-15 11:02:00,
2013-05-15 07:07:00,69.5,64.1,30.10,ESE,102,0.0,0.0,83,0.00,,SCT050,0.00,30.00,VWS V14.00,2013-05-15 11:07:00,
2013-05-15 07:12:00,69.8,63.7,30.10,ESE,102,0.0,1.0,81,0.00,,SCT050,0.00,37.00,VWS V14.00,2013-05-15 11:12:00,
2013-05-15 07:18:00,70.2,63.4,30.10,ESE,102,0.0,2.0,79,0.00,,SCT050,0.00,237.00,VWS V14.00,2013-05-15 11:18:00,
2013-05-15 07:23:00,70.7,63.1,30.10,ESE,102,0.0,1.0,77,0.00,,SCT050,0.00,202.00,VWS V14.00,2013-05-15 11:23:00,
2013-05-15 07:28:00,71.5,63.5,30.11,ESE,102,0.0,3.0,76,0.00,,SCT050,0.00,206.00,VWS V14.00,2013-05-15 11:28:00,
2013-05-15 07:33:00,72.0,62.9,30.10,ESE,102,0.0,2.0,73,0.00,,SCT050,0.00,216.00,VWS V14.00,2013-05-15 11:33:00,
2013-05-15 07:38:00,72.5,63.4,30.11,ESE,102,0.0,0.0,73,0.00,,BKN055,0.00,207.00,VWS V14.00,2013-05-15 11:38:00,
2013-05-15 07:43:00,73.0,63.0,30.11,ESE,102,0.0,4.0,71,0.00,,BKN055,0.00,206.00,VWS V14.00,2013-05-15 11:43:00,
2013-05-15 07:48:00,73.4,62.6,30.11,ESE,102,5.0,7.0,69,0.00,,BKN055,0.00,229.00,VWS V14.00,2013-05-15 11:48:00,
2013-05-15 07:53:00,73.7,62.5,30.11,ESE,103,5.0,5.0,68,0.00,,BKN055,0.00,221.00,VWS V14.00,2013-05-15 11:53:00,
2013-05-15 07:58:00,74.1,62.5,30.11,ESE,103,4.0,6.0,67,0.00,,BKN055,0.00,251.00,VWS V14.00,2013-05-15 11:58:00,
2013-05-15 08:04:00,74.4,62.3,30.11,ESE,105,5.0,6.0,66,0.00,,BKN055,0.00,278.00,VWS V14.00,2013-05-15 12:04:00,
2013-05-15 08:09:00,74.7,61.7,30.11,ESE,110,5.0,9.0,64,0.00,,BKN055,0.00,211.00,VWS V14.00,2013-05-15 12:09:00,
2013-05-15 08:14:00,74.9,61.0,30.11,ESE,115,7.0,7.0,62,0.00,,BKN055,0.00,200.00,VWS V14.00,2013-05-15 12:14:00,
2013-05-15 08:19:00,75.1,60.8,30.12,ESE,121,7.0,9.0,61,0.00,,BKN055,0.00,199.00,VWS V14.00,2013-05-15 12:19:00,
2013-05-15 08:24:00,75.4,61.5,30.12,SE,142,9.0,12.0,62,0.00,,BKN055,0.00,193.00,VWS V14.00,2013-05-15 12:24:00,
2013-05-15 08:29:00,75.6,60.8,30.12,SE,140,3.0,6.0,60,0.00,,BKN055,0.00,186.00,VWS V14.00,2013-05-15 12:29:00,
2013-05-15 08:34:00,75.8,61.4,30.12,ESE,112,4.0,7.0,61,0.00,,SCT050,0.00,181.00,VWS V14.00,2013-05-15 12:34:00,
2013-05-15 08:39:00,76.0,60.7,30.12,SE,130,2.0,5.0,59,0.00,,SCT050,0.00,178.00,VWS V14.00,2013-05-15 12:39:00,
2013-05-15 08:44:00,76.3,61.4,30.12,SE,136,1.0,8.0,60,0.00,,SCT050,0.00,178.00,VWS V14.00,2013-05-15 12:44:00,
2013-05-15 08:49:00,76.2,61.3,30.12,ESE,119,6.0,9.0,60,0.00,,SCT050,0.00,178.00,VWS V14.00,2013-05-15 12:49:00,
2013-05-15 08:54:00,76.1,60.8,30.12,SE,146,5.0,8.0,59,0.00,,SCT050,0.00,181.00,VWS V14.00,2013-05-15 12:54:00,
2013-05-15 08:59:00,76.2,61.3,30.13,SE,125,8.0,11.0,60,0.00,,SCT050,0.00,186.00,VWS V14.00,2013-05-15 12:59:00,
2013-05-15 09:04:00,76.1,61.2,30.13,SE,130,4.0,6.0,60,0.00,,SCT050,0.00,146.00,VWS V14.00,2013-05-15 13:04:00,
2013-05-15 09:09:00,76.4,60.5,30.13,ESE,107,10.0,14.0,58,0.00,,SCT050,0.00,197.00,VWS V14.00,2013-05-15 13:09:00,
2013-05-15 09:15:00,76.4,61.0,30.13,ESE,119,7.0,7.0,59,0.00,,SCT050,0.00,63.00,VWS V14.00,2013-05-15 13:15:00,
2013-05-15 09:20:00,76.1,61.7,30.13,ESE,108,5.0,6.0,61,0.00,,SCT050,0.00,72.00,VWS V14.00,2013-05-15 13:20:00,
2013-05-15 09:25:00,76.2,62.2,30.13,ESE,118,2.0,5.0,62,0.00,,SCT050,0.00,225.00,VWS V14.00,2013-05-15 13:25:00,
2013-05-15 09:30:00,76.4,61.0,30.14,ESE,117,5.0,7.0,59,0.00,,SCT050,0.00,221.00,VWS V14.00,2013-05-15 13:30:00,
2013-05-15 09:35:00,76.1,61.7,30.13,East,89,6.0,9.0,61,0.00,,SCT050,0.00,149.00,VWS V14.00,2013-05-15 13:35:00,
2013-05-15 09:40:00,76.1,61.2,30.14,SE,130,5.0,10.0,60,0.00,,FEW050,0.00,97.00,VWS V14.00,2013-05-15 13:40:00,
2013-05-15 09:45:00,76.5,61.6,30.14,SSE,152,5.0,5.0,60,0.00,,FEW050,0.00,132.00,VWS V14.00,2013-05-15 13:45:00,
2013-05-15 09:51:00,76.4,61.0,30.13,ESE,103,6.0,13.0,59,0.00,,FEW050,0.00,104.00,VWS V14.00,2013-05-15 13:51:00,
2013-05-15 09:56:00,76.1,61.7,30.13,ESE,105,6.0,10.0,61,0.00,,FEW050,0.00,239.00,VWS V14.00,2013-05-15 13:56:00,
2013-05-15 10:01:00,76.6,61.7,30.14,SE,140,6.0,9.0,60,0.00,,FEW050,0.00,86.00,VWS V14.00,2013-05-15 14:01:00,
2013-05-15 10:06:00,76.7,62.2,30.13,ESE,106,7.0,8.0,61,0.00,,FEW050,0.00,232.00,VWS V14.00,2013-05-15 14:06:00,
2013-05-15 10:11:00,77.1,61.2,30.13,ESE,119,7.0,11.0,58,0.00,,FEW050,0.00,74.00,VWS V14.00,2013-05-15 14:11:00,
2013-05-15 10:16:00,77.1,62.2,30.13,SE,128,6.0,11.0,60,0.00,,FEW050,0.00,230.00,VWS V14.00,2013-05-15 14:16:00,
2013-05-15 10:22:00,77.6,61.7,30.14,SSE,155,5.0,7.0,58,0.00,,FEW050,0.00,229.00,VWS V14.00,2013-05-15 14:22:00,
2013-05-15 10:27:00,77.8,62.3,30.14,ESE,122,6.0,7.0,59,0.00,,FEW050,0.00,227.00,VWS V14.00,2013-05-15 14:27:00,
2013-05-15 10:32:00,77.5,60.6,30.15,SE,142,11.0,13.0,56,0.00,,FEW050,0.00,65.00,VWS V14.00,2013-05-15 14:32:00,
2013-05-15 10:37:00,77.2,61.3,30.14,ESE,123,16.0,16.0,58,0.00,,FEW050,0.00,227.00,VWS V14.00,2013-05-15 14:37:00,
2013-05-15 10:42:00,77.5,61.6,30.14,SE,130,9.0,11.0,58,0.00,,FEW050,0.00,221.00,VWS V14.00,2013-05-15 14:42:00,
2013-05-15 10:47:00,77.8,60.4,30.14,SSE,161,6.0,9.0,55,0.00,,FEW050,0.00,221.00,VWS V14.00,2013-05-15 14:47:00,
2013-05-15 10:52:00,78.0,60.5,30.14,SE,139,4.0,11.0,55,0.00,,FEW050,0.00,220.00,VWS V14.00,2013-05-15 14:52:00,
2013-05-15 10:57:00,77.6,60.2,30.14,East,88,4.0,11.0,55,0.00,,FEW050,0.00,218.00,VWS V14.00,2013-05-15 14:57:00,
2013-05-15 11:03:00,77.2,60.8,30.14,East,96,7.0,11.0,57,0.00,,FEW050,0.00,218.00,VWS V14.00,2013-05-15 15:03:00,
2013-05-15 11:08:00,77.9,61.5,30.14,SE,135,7.0,7.0,57,0.00,,FEW050,0.00,223.00,VWS V14.00,2013-05-15 15:08:00,
2013-05-15 11:13:00,78.5,61.5,30.14,East,83,14.0,14.0,56,0.00,,FEW050,0.00,225.00,VWS V14.00,2013-05-15 15:13:00,
2013-05-15 11:18:00,77.7,61.3,30.14,East,92,7.0,11.0,57,0.00,,FEW050,0.00,199.00,VWS V14.00,2013-05-15 15:18:00,
2013-05-15 11:23:00,77.3,61.4,30.15,SE,126,5.0,12.0,58,0.00,,FEW050,0.00,220.00,VWS V14.00,2013-05-15 15:23:00,
2013-05-15 11:28:00,77.3,60.4,30.14,ENE,77,5.0,11.0,56,0.00,,FEW050,0.00,218.00,VWS V14.00,2013-05-15 15:28:00,
2013-05-15 11:33:00,77.3,60.4,30.14,ESE,121,6.0,12.0,56,0.00,,FEW050,0.00,218.00,VWS V14.00,2013-05-15 15:33:00,
2013-05-15 11:38:00,77.8,61.4,30.14,SE,136,9.0,16.0,57,0.00,,FEW050,0.00,220.00,VWS V14.00,2013-05-15 15:38:00,
2013-05-15 11:44:00,78.1,60.6,30.14,SSE,153,3.0,5.0,55,0.00,,FEW050,0.00,216.00,VWS V14.00,2013-05-15 15:44:00,
2013-05-15 11:49:00,78.6,60.1,30.14,ESE,109,8.0,16.0,53,0.00,,FEW050,0.00,209.00,VWS V14.00,2013-05-15 15:49:00,
2013-05-15 11:54:00,78.2,59.2,30.14,SE,128,5.0,13.0,52,0.00,,FEW050,0.00,207.00,VWS V14.00,2013-05-15 15:54:00,
2013-05-15 11:59:00,77.9,59.9,30.14,SE,130,14.0,15.0,54,0.00,,FEW050,0.00,209.00,VWS V14.00,2013-05-15 15:59:00,
2013-05-15 12:04:00,78.0,60.5,30.14,SE,132,6.0,6.0,55,0.00,,FEW050,0.00,206.00,VWS V14.00,2013-05-15 16:04:00,
2013-05-15 12:09:00,78.2,59.7,30.14,ENE,64,10.0,12.0,53,0.00,,FEW050,0.00,207.00,VWS V14.00,2013-05-15 16:09:00,
2013-05-15 12:14:00,78.5,60.5,30.14,ESE,114,7.0,11.0,54,0.00,,FEW050,0.00,206.00,VWS V14.00,2013-05-15 16:14:00,
2013-05-15 12:19:00,78.4,60.4,30.14,East,85,9.0,10.0,54,0.00,,FEW050,0.00,214.00,VWS V14.00,2013-05-15 16:19:00,
2013-05-15 12:24:00,78.3,60.3,30.14,South,175,5.0,11.0,54,0.00,,FEW050,0.00,227.00,VWS V14.00,2013-05-15 16:24:00,
2013-05-15 12:29:00,77.9,60.5,30.14,SE,133,9.0,9.0,55,0.00,,FEW050,0.00,105.00,VWS V14.00,2013-05-15 16:29:00,
2013-05-15 12:34:00,77.7,61.3,30.14,ESE,110,7.0,9.0,57,0.00,,FEW050,0.00,218.00,VWS V14.00,2013-05-15 16:34:00,
2013-05-15 12:39:00,78.4,60.9,30.14,SSE,150,5.0,13.0,55,0.00,,FEW050,0.00,225.00,VWS V14.00,2013-05-15 16:39:00,
2013-05-15 12:44:00,77.9,60.5,30.14,ESE,117,14.0,14.0,55,0.00,,FEW050,0.00,84.00,VWS V14.00,2013-05-15 16:44:00,
2013-05-15 12:49:00,77.5,60.6,30.14,ESE,105,5.0,13.0,56,0.00,,FEW050,0.00,227.00,VWS V14.00,2013-05-15 16:49:00,
2013-05-15 12:55:00,77.7,60.8,30.14,East,81,5.0,11.0,56,0.00,,FEW050,0.00,69.00,VWS V14.00,2013-05-15 16:55:00,
2013-05-15 13:00:00,77.7,61.3,30.14,ESE,123,4.0,11.0,57,0.00,,FEW050,0.00,79.00,VWS V14.00,2013-05-15 17:00:00,
2013-05-15 13:05:00,77.8,61.4,30.13,ESE,109,5.0,14.0,57,0.00,,FEW050,0.00,58.00,VWS V14.00,2013-05-15 17:05:00,
2013-05-15 13:10:00,77.7,62.2,30.13,ESE,117,7.0,7.0,59,0.00,,FEW050,0.00,204.00,VWS V14.00,2013-05-15 17:10:00,
2013-05-15 13:15:00,78.0,61.5,30.13,ESE,115,6.0,12.0,57,0.00,,FEW050,0.00,104.00,VWS V14.00,2013-05-15 17:15:00,
2013-05-15 13:20:00,77.7,60.8,30.13,ESE,108,6.0,14.0,56,0.00,,FEW050,0.00,202.00,VWS V14.00,2013-05-15 17:20:00,
2013-05-15 13:25:00,77.5,61.1,30.12,East,101,11.0,12.0,57,0.00,,FEW050,0.00,165.00,VWS V14.00,2013-05-15 17:25:00,
2013-05-15 13:30:00,77.6,62.2,30.12,SE,126,4.0,7.0,59,0.00,,FEW050,0.00,202.00,VWS V14.00,2013-05-15 17:30:00,
2013-05-15 13:35:00,78.2,61.2,30.13,ESE,123,7.0,15.0,56,0.00,,FEW050,0.00,209.00,VWS V14.00,2013-05-15 17:35:00,
2013-05-15 13:40:00,78.2,61.7,30.12,East,101,12.0,15.0,57,0.00,,FEW050,0.00,206.00,VWS V14.00,2013-05-15 17:40:00,
2013-05-15 13:45:00,78.4,62.9,30.12,ESE,105,8.0,9.0,59,0.00,,FEW050,0.00,211.00,VWS V14.00,2013-05-15 17:45:00,
2013-05-15 13:50:00,78.0,60.5,30.12,ESE,114,8.0,13.0,55,0.00,,FEW050,0.00,72.00,VWS V14.00,2013-05-15 17:50:00,
2013-05-15 13:55:00,77.5,60.6,30.12,ESE,107,3.0,10.0,56,0.00,,FEW050,0.00,206.00,VWS V14.00,2013-05-15 17:55:00,
2013-05-15 14:00:00,77.9,61.0,30.12,SE,139,6.0,13.0,56,0.00,,FEW050,0.00,69.00,VWS V14.00,2013-05-15 18:00:00,
2013-05-15 14:06:00,78.7,60.2,30.11,ESE,117,3.0,6.0,53,0.00,,FEW050,0.00,181.00,VWS V14.00,2013-05-15 18:06:00,
2013-05-15 14:11:00,78.4,59.3,30.11,SE,140,6.0,12.0,52,0.00,,FEW050,0.00,178.00,VWS V14.00,2013-05-15 18:11:00,
2013-05-15 14:16:00,78.7,58.5,30.11,ESE,121,7.0,15.0,50,0.00,,FEW050,0.00,176.00,VWS V14.00,2013-05-15 18:16:00,
2013-05-15 14:21:00,79.1,60.5,30.11,SE,130,9.0,9.0,53,0.00,,FEW050,0.00,174.00,VWS V14.00,2013-05-15 18:21:00,
2013-05-15 14:26:00,79.1,60.0,30.11,ESE,115,11.0,16.0,52,0.00,,FEW050,0.00,176.00,VWS V14.00,2013-05-15 18:26:00,
2013-05-15 14:31:00,78.9,59.8,30.11,SSE,157,14.0,16.0,52,0.00,,FEW050,0.00,172.00,VWS V14.00,2013-05-15 18:31:00,
2013-05-15 14:36:00,79.1,59.4,30.11,SSE,153,4.0,11.0,51,0.00,,FEW050,0.00,172.00,VWS V14.00,2013-05-15 18:36:00,
2013-05-15 14:41:00,79.0,59.3,30.10,East,95,8.0,12.0,51,0.00,,FEW050,0.00,172.00,VWS V14.00,2013-05-15 18:41:00,
2013-05-15 14:46:00,79.1,60.5,30.10,SE,142,6.0,11.0,53,0.00,,FEW050,0.00,171.00,VWS V14.00,2013-05-15 18:46:00,
2013-05-15 14:51:00,79.2,61.1,30.10,SE,129,5.0,10.0,54,0.00,,FEW050,0.00,172.00,VWS V14.00,2013-05-15 18:51:00,
2013-05-15 14:56:00,78.9,61.4,30.10,ESE,109,13.0,13.0,55,0.00,,FEW050,0.00,109.00,VWS V14.00,2013-05-15 18:56:00,
2013-05-15 15:01:00,79.0,62.5,30.10,SE,130,7.0,11.0,57,0.00,,FEW050,0.00,54.00,VWS V14.00,2013-05-15 19:01:00,
2013-05-15 15:06:00,78.5,62.5,30.10,SSE,161,12.0,14.0,58,0.00,,FEW050,0.00,69.00,VWS V14.00,2013-05-15 19:06:00,
2013-05-15 15:11:00,78.4,62.4,30.10,ESE,115,13.0,14.0,58,0.00,,FEW050,0.00,192.00,VWS V14.00,2013-05-15 19:11:00,
2013-05-15 15:16:00,77.9,61.5,30.10,ESE,109,5.0,10.0,57,0.00,,FEW050,0.00,209.00,VWS V14.00,2013-05-15 19:16:00,
2013-05-15 15:21:00,78.3,62.3,30.10,South,169,13.0,18.0,58,0.00,,FEW050,0.00,207.00,VWS V14.00,2013-05-15 19:21:00,
2013-05-15 15:26:00,78.5,62.5,30.10,SE,142,6.0,10.0,58,0.00,,FEW050,0.00,206.00,VWS V14.00,2013-05-15 19:26:00,
2013-05-15 15:31:00,78.5,63.0,30.09,ESE,121,9.0,12.0,59,0.00,,FEW050,0.00,195.00,VWS V14.00,2013-05-15 19:31:00,
2013-05-15 15:36:00,78.6,63.1,30.09,SE,144,9.0,13.0,59,0.00,,FEW050,0.00,207.00,VWS V14.00,2013-05-15 19:36:00,
2013-05-15 15:41:00,78.4,62.9,30.09,ESE,107,6.0,12.0,59,0.00,,FEW050,0.00,214.00,VWS V14.00,2013-05-15 19:41:00,
2013-05-15 15:46:00,78.5,62.5,30.08,ESE,113,12.0,12.0,58,0.00,,FEW050,0.00,74.00,VWS V14.00,2013-05-15 19:46:00,
2013-05-15 15:52:00,78.1,62.6,30.08,SE,134,12.0,12.0,59,0.00,,FEW050,0.00,209.00,VWS V14.00,2013-05-15 19:52:00,
2013-05-15 15:58:00,78.4,62.9,30.07,ESE,119,7.0,17.0,59,0.00,,FEW050,0.00,67.00,VWS V14.00,2013-05-15 19:58:00,
2013-05-15 16:03:00,78.1,62.6,30.07,SE,144,8.0,18.0,59,0.00,,FEW050,0.00,178.00,VWS V14.00,2013-05-15 20:03:00,
2013-05-15 16:08:00,78.6,64.0,30.07,ESE,118,9.0,12.0,61,0.00,,FEW050,0.00,207.00,VWS V14.00,2013-05-15 20:08:00,
2013-05-15 16:13:00,78.4,62.9,30.07,SSE,167,11.0,14.0,59,0.00,,FEW050,0.00,72.00,VWS V14.00,2013-05-15 20:13:00,
2013-05-15 16:18:00,77.9,62.4,30.07,SSE,167,11.0,13.0,59,0.00,,FEW050,0.00,183.00,VWS V14.00,2013-05-15 20:18:00,
2013-05-15 16:23:00,78.2,63.2,30.06,ESE,108,14.0,17.0,60,0.00,,FEW050,0.00,192.00,VWS V14.00,2013-05-15 20:23:00,
2013-05-15 16:28:00,78.0,62.5,30.06,SE,137,5.0,11.0,59,0.00,,FEW050,0.00,188.00,VWS V14.00,2013-05-15 20:28:00,
2013-05-15 16:33:00,78.0,63.0,30.06,ESE,118,11.0,13.0,60,0.00,,FEW050,0.00,186.00,VWS V14.00,2013-05-15 20:33:00,
2013-05-15 16:38:00,78.1,63.1,30.06,ESE,115,4.0,12.0,60,0.00,,FEW050,0.00,192.00,VWS V14.00,2013-05-15 20:38:00,
2013-05-15 16:43:00,78.5,64.0,30.06,ESE,121,3.0,7.0,61,0.00,,FEW050,0.00,195.00,VWS V14.00,2013-05-15 20:43:00,
2013-05-15 16:49:00,77.8,63.3,30.06,ESE,114,5.0,11.0,61,0.00,,FEW050,0.00,53.00,VWS V14.00,2013-05-15 20:49:00,
2013-05-15 16:54:00,77.2,63.6,30.06,ENE,73,7.0,11.0,63,0.00,,FEW050,0.00,183.00,VWS V14.00,2013-05-15 20:54:00,
2013-05-15 16:59:00,77.6,63.6,30.06,SSE,149,10.0,10.0,62,0.00,,FEW050,0.00,69.00,VWS V14.00,2013-05-15 20:59:00,
2013-05-15 17:04:00,77.9,64.3,30.06,SE,130,4.0,5.0,63,0.00,,FEW050,0.00,185.00,VWS V14.00,2013-05-15 21:04:00,
2013-05-15 17:09:00,77.7,63.7,30.06,ESE,117,6.0,10.0,62,0.00,,FEW050,0.00,65.00,VWS V14.00,2013-05-15 21:09:00,
2013-05-15 17:14:00,77.6,63.6,30.06,SSE,151,6.0,10.0,62,0.00,,FEW050,0.00,62.00,VWS V14.00,2013-05-15 21:14:00,
2013-05-15 17:19:00,77.7,63.7,30.06,SE,140,6.0,9.0,62,0.00,,FEW050,0.00,172.00,VWS V14.00,2013-05-15 21:19:00,
2013-05-15 17:24:00,77.8,63.3,30.06,ESE,119,1.0,6.0,61,0.00,,FEW050,0.00,167.00,VWS V14.00,2013-05-15 21:24:00,
2013-05-15 17:30:00,77.8,63.8,30.06,SE,126,5.0,12.0,62,0.00,,FEW050,0.00,144.00,VWS V14.00,2013-05-15 21:30:00,
2013-05-15 17:35:00,77.8,64.2,30.06,ESE,105,9.0,11.0,63,0.00,,FEW050,0.00,153.00,VWS V14.00,2013-05-15 21:35:00,
2013-05-15 17:40:00,77.4,64.3,30.06,SE,132,7.0,11.0,64,0.00,,FEW050,0.00,70.00,VWS V14.00,2013-05-15 21:40:00,
2013-05-15 17:45:00,77.5,63.9,30.06,ESE,109,10.0,12.0,63,0.00,,FEW050,0.00,149.00,VWS V14.00,2013-05-15 21:45:00,
2013-05-15 17:50:00,77.6,64.5,30.06,SE,136,0.0,6.0,64,0.00,,FEW050,0.00,144.00,VWS V14.00,2013-05-15 21:50:00,
2013-05-15 17:55:00,77.8,64.7,30.06,ESE,110,9.0,13.0,64,0.00,,FEW050,0.00,134.00,VWS V14.00,2013-05-15 21:55:00,
2013-05-15 18:00:00,77.3,64.2,30.06,SE,131,8.0,11.0,64,0.00,,FEW050,0.00,139.00,VWS V14.00,2013-05-15 22:00:00,
2013-05-15 18:05:00,77.3,64.2,30.06,ESE,122,5.0,7.0,64,0.00,,FEW050,0.00,156.00,VWS V14.00,2013-05-15 22:05:00,
2013-05-15 18:10:00,77.9,64.8,30.05,East,101,6.0,9.0,64,0.00,,FEW050,0.00,153.00,VWS V14.00,2013-05-15 22:10:00,
2013-05-15 18:15:00,77.9,64.8,30.05,SE,134,8.0,11.0,64,0.00,,FEW050,0.00,56.00,VWS V14.00,2013-05-15 22:15:00,
2013-05-15 18:20:00,77.3,65.1,30.05,ESE,104,5.0,15.0,66,0.00,,FEW050,0.00,47.00,VWS V14.00,2013-05-15 22:20:00,
2013-05-15 18:25:00,77.1,64.9,30.05,SE,129,5.0,10.0,66,0.00,,FEW050,0.00,74.00,VWS V14.00,2013-05-15 22:25:00,
2013-05-15 18:30:00,76.9,65.5,30.05,SSE,161,9.0,10.0,68,0.00,,FEW050,0.00,28.00,VWS V14.00,2013-05-15 22:30:00,
2013-05-15 18:36:00,76.3,66.2,30.05,SE,134,3.0,13.0,71,0.00,,FEW050,0.00,26.00,VWS V14.00,2013-05-15 22:36:00,
2013-05-15 18:41:00,76.1,65.2,30.05,SE,138,5.0,7.0,69,0.00,,FEW036,0.00,26.00,VWS V14.00,2013-05-15 22:41:00,
2013-05-15 18:46:00,76.2,64.4,30.05,SE,134,7.0,10.0,67,0.00,,FEW036,0.00,23.00,VWS V14.00,2013-05-15 22:46:00,
2013-05-15 18:51:00,76.3,64.6,30.05,SSE,154,6.0,7.0,67,0.00,,FEW036,0.00,21.00,VWS V14.00,2013-05-15 22:51:00,
2013-05-15 18:56:00,76.3,65.0,30.05,SE,138,5.0,9.0,68,0.00,,FEW036,0.00,14.00,VWS V14.00,2013-05-15 22:56:00,
2013-05-15 19:01:00,76.4,64.6,30.06,SE,128,6.0,8.0,67,0.00,,FEW036,0.00,14.00,VWS V14.00,2013-05-15 23:01:00,
2013-05-15 19:06:00,76.3,64.6,30.06,SSE,149,10.0,10.0,67,0.00,,FEW036,0.00,11.00,VWS V14.00,2013-05-15 23:06:00,
2013-05-15 19:11:00,76.3,64.6,30.06,SSE,152,5.0,5.0,67,0.00,,FEW036,0.00,11.00,VWS V14.00,2013-05-15 23:11:00,
2013-05-15 19:16:00,76.4,64.6,30.06,SE,140,8.0,13.0,67,0.00,,FEW036,0.00,9.00,VWS V14.00,2013-05-15 23:16:00,
2013-05-15 19:22:00,76.3,64.1,30.05,SE,130,13.0,13.0,66,0.00,,FEW036,0.00,9.00,VWS V14.00,2013-05-15 23:22:00,
2013-05-15 19:27:00,76.1,64.4,30.05,SSE,150,7.0,14.0,67,0.00,,FEW036,0.00,9.00,VWS V14.00,2013-05-15 23:27:00,
2013-05-15 19:32:00,76.1,64.4,30.05,SE,130,11.0,12.0,67,0.00,,FEW036,0.00,7.00,VWS V14.00,2013-05-15 23:32:00,
2013-05-15 19:37:00,76.0,63.4,30.05,SE,137,6.0,14.0,65,0.00,,OVC055,0.00,5.00,VWS V14.00,2013-05-15 23:37:00,
2013-05-15 19:42:00,75.9,63.7,30.05,SSE,150,6.0,10.0,66,0.00,,OVC055,0.00,0.00,VWS V14.00,2013-05-15 23:42:00,
2013-05-15 19:47:00,75.8,63.2,30.05,SSE,166,11.0,11.0,65,0.00,,OVC055,0.00,0.00,VWS V14.00,2013-05-15 23:47:00,
2013-05-15 19:52:00,75.8,63.6,30.05,SSE,150,10.0,12.0,66,0.00,,OVC055,0.00,0.00,VWS V14.00,2013-05-15 23:52:00,
2013-05-15 19:57:00,75.7,63.1,30.05,SSE,156,11.0,11.0,65,0.00,,OVC055,0.00,0.00,VWS V14.00,2013-05-15 23:57:00,
2013-05-15 20:02:00,75.5,62.9,30.05,SSE,147,3.0,12.0,65,0.00,,OVC055,0.00,0.00,VWS V14.00,2013-05-16 00:02:00,
2013-05-15 20:07:00,75.5,62.9,30.05,SSE,149,10.0,10.0,65,0.00,,OVC055,0.00,0.00,VWS V14.00,2013-05-16 00:07:00,
2013-05-15 20:13:00,75.5,62.9,30.05,SSE,162,5.0,10.0,65,0.00,,BKN055,0.00,0.00,VWS V14.00,2013-05-16 00:13:00,
2013-05-15 20:18:00,75.3,63.2,30.05,SE,134,9.0,11.0,66,0.00,,BKN055,0.00,0.00,VWS V14.00,2013-05-16 00:18:00,
2013-05-15 20:23:00,75.3,63.2,30.06,SE,132,4.0,6.0,66,0.00,,BKN055,0.00,0.00,VWS V14.00,2013-05-16 00:23:00,
2013-05-15 20:28:00,75.2,63.1,30.05,SSE,159,7.0,11.0,66,0.00,,BKN055,0.00,0.00,VWS V14.00,2013-05-16 00:28:00,
2013-05-15 20:33:00,75.2,63.5,30.06,SE,145,2.0,2.0,67,0.00,,BKN055,0.00,0.00,VWS V14.00,2013-05-16 00:33:00,
2013-05-15 20:38:00,75.1,63.4,30.06,SSE,150,4.0,10.0,67,0.00,,BKN055,0.00,0.00,VWS V14.00,2013-05-16 00:38:00,
2013-05-15 20:43:00,75.1,63.0,30.06,SSE,152,7.0,9.0,66,0.00,,BKN055,0.00,0.00,VWS V14.00,2013-05-16 00:43:00,
2013-05-15 20:48:00,75.1,63.0,30.06,SSE,156,6.0,8.0,66,0.00,,BKN055,0.00,0.00,VWS V14.00,2013-05-16 00:48:00,
2013-05-15 20:53:00,75.0,63.3,30.06,SSE,150,3.0,7.0,67,0.00,,BKN055,0.00,0.00,VWS V14.00,2013-05-16 00:53:00,
2013-05-15 20:58:00,74.9,62.8,30.06,SSE,158,4.0,9.0,66,0.00,,BKN055,0.00,0.00,VWS V14.00,2013-05-16 00:58:00,
2013-05-15 21:03:00,74.9,62.8,30.06,SSE,156,4.0,4.0,66,0.00,,BKN055,0.00,0.00,VWS V14.00,2013-05-16 01:03:00,
2013-05-15 21:09:00,74.8,63.1,30.06,SSE,152,6.0,10.0,67,0.00,,BKN055,0.00,0.00,VWS V14.00,2013-05-16 01:09:00,
2013-05-15 21:14:00,74.8,63.1,30.06,SSE,153,3.0,10.0,67,0.00,,BKN055,0.00,0.00,VWS V14.00,2013-05-16 01:14:00,
2013-05-15 21:19:00,74.8,63.1,30.06,SE,140,3.0,7.0,67,0.00,,BKN055,0.00,0.00,VWS V14.00,2013-05-16 01:19:00,
2013-05-15 21:24:00,74.7,63.0,30.07,SE,141,4.0,7.0,67,0.00,,BKN055,0.00,0.00,VWS V14.00,2013-05-16 01:24:00,
2013-05-15 21:29:00,74.6,62.9,30.07,SE,143,3.0,6.0,67,0.00,,BKN055,0.00,0.00,VWS V14.00,2013-05-16 01:29:00,
2013-05-15 21:34:00,74.6,62.9,30.07,SSE,151,6.0,7.0,67,0.00,,BKN055,0.00,0.00,VWS V14.00,2013-05-16 01:34:00,
2013-05-15 21:39:00,74.6,62.9,30.07,SSE,152,2.0,6.0,67,0.00,,BKN045,0.00,0.00,VWS V14.00,2013-05-16 01:39:00,
2013-05-15 21:45:00,74.6,62.5,30.07,SSE,153,1.0,9.0,66,0.00,,BKN045,0.00,0.00,VWS V14.00,2013-05-16 01:45:00,
2013-05-15 21:50:00,74.5,62.0,30.07,SSE,148,5.0,8.0,65,0.00,,BKN045,0.00,0.00,VWS V14.00,2013-05-16 01:50:00,
2013-05-15 21:55:00,74.5,62.0,30.07,SE,145,7.0,7.0,65,0.00,,BKN045,0.00,0.00,VWS V14.00,2013-05-16 01:55:00,
2013-05-15 22:01:00,74.4,61.9,30.07,SE,136,5.0,8.0,65,0.00,,BKN045,0.00,0.00,VWS V14.00,2013-05-16 02:01:00,
2013-05-15 22:06:00,74.4,62.3,30.07,SE,145,4.0,6.0,66,0.00,,BKN045,0.00,0.00,VWS V14.00,2013-05-16 02:06:00,
2013-05-15 22:11:00,74.3,62.2,30.07,SSE,147,9.0,9.0,66,0.00,,BKN045,0.00,0.00,VWS V14.00,2013-05-16 02:11:00,
2013-05-15 22:16:00,74.2,61.7,30.07,SE,146,3.0,5.0,65,0.00,,BKN045,0.00,0.00,VWS V14.00,2013-05-16 02:16:00,
2013-05-15 22:21:00,74.2,62.1,30.07,SSE,153,7.0,7.0,66,0.00,,BKN045,0.00,0.00,VWS V14.00,2013-05-16 02:21:00,
2013-05-15 22:26:00,74.2,61.7,30.08,SE,136,7.0,10.0,65,0.00,,BKN045,0.00,0.00,VWS V14.00,2013-05-16 02:26:00,
2013-05-15 22:32:00,74.3,61.8,30.08,SSE,155,0.0,1.0,65,0.00,,BKN045,0.00,0.00,VWS V14.00,2013-05-16 02:32:00,
2013-05-15 22:37:00,74.2,61.7,30.08,SSE,154,0.0,7.0,65,0.00,,SCT042,0.00,0.00,VWS V14.00,2013-05-16 02:37:00,
2013-05-15 22:42:00,74.0,61.9,30.08,SSE,154,2.0,4.0,66,0.00,,SCT042,0.00,0.00,VWS V14.00,2013-05-16 02:42:00,
2013-05-15 22:47:00,74.0,61.9,30.08,SSE,155,4.0,8.0,66,0.00,,SCT042,0.00,0.00,VWS V14.00,2013-05-16 02:47:00,
2013-05-15 22:52:00,74.0,61.5,30.08,SSE,162,9.0,9.0,65,0.00,,SCT042,0.00,0.00,VWS V14.00,2013-05-16 02:52:00,
2013-05-15 22:57:00,74.1,61.2,30.08,SSE,164,7.0,11.0,64,0.00,,SCT042,0.00,0.00,VWS V14.00,2013-05-16 02:57:00,
2013-05-15 23:02:00,74.1,61.2,30.08,SSE,148,5.0,5.0,64,0.00,,SCT042,0.00,0.00,VWS V14.00,2013-05-16 03:02:00,
2013-05-15 23:07:00,74.0,61.1,30.08,SSE,150,5.0,7.0,64,0.00,,SCT042,0.00,0.00,VWS V14.00,2013-05-16 03:07:00,
2013-05-15 23:12:00,74.0,61.1,30.08,SSE,150,3.0,4.0,64,0.00,,SCT042,0.00,0.00,VWS V14.00,2013-05-16 03:12:00,
2013-05-15 23:17:00,73.8,61.3,30.08,SSE,150,4.0,4.0,65,0.00,,SCT042,0.00,0.00,VWS V14.00,2013-05-16 03:17:00,
2013-05-15 23:22:00,73.8,60.9,30.07,SSE,155,0.0,4.0,64,0.00,,SCT042,0.00,0.00,VWS V14.00,2013-05-16 03:22:00,
2013-05-15 23:27:00,73.7,61.2,30.08,SSE,156,6.0,7.0,65,0.00,,SCT042,0.00,0.00,VWS V14.00,2013-05-16 03:27:00,
2013-05-15 23:32:00,73.7,61.2,30.08,SSE,158,1.0,4.0,65,0.00,,SCT042,0.00,0.00,VWS V14.00,2013-05-16 03:32:00,
2013-05-15 23:37:00,73.7,61.2,30.07,SSE,157,5.0,9.0,65,0.00,,SCT042,0.00,0.00,VWS V14.00,2013-05-16 03:37:00,
2013-05-15 23:42:00,73.6,61.1,30.07,SSE,157,4.0,5.0,65,0.00,,SCT042,0.00,0.00,VWS V14.00,2013-05-16 03:42:00,
2013-05-15 23:48:00,73.5,61.0,30.07,SSE,159,4.0,8.0,65,0.00,,SCT042,0.00,0.00,VWS V14.00,2013-05-16 03:48:00,
2013-05-15 23:53:00,73.5,61.0,30.07,SSE,157,5.0,5.0,65,0.00,,SCT042,0.00,0.00,VWS V14.00,2013-05-16 03:53:00,
2013-05-15 23:58:00,73.4,60.9,30.07,SSE,157,0.0,1.0,65,0.00,,SCT042,0.00,0.00,VWS V14.00,2013-05-16 03:58:00,